This demonstration page uses our WeatherBlox Daily Observations layout. Learn more.

Left ArrowRight Arrow

Hourly Observations for August 5, 2015

Temp ( °F °C ) Dew Point ( °F °C ) Humidity (%) Winds ( mph kmh ) Pressure ( in mb ) Visibility ( mi km ) Precip ( " mm )
12:43 am 00:43 Mostly Cloudy 73 22.8 69 20.6 87 87 Calm 29.94 1014 10 16.0934 0 0
12:54 am 00:54 Cloudy 73 22.8 69 20.6 87 87 Calm 29.94 1014 10 16.0934 0 0
1:17 am 01:17 Cloudy 72 22.2 70 21.1 94 94 NE 7 11 29.94 1014 10 16.0934 0 0
1:54 am 01:54 Cloudy 73 22.8 70 21.1 90 90 E 6 9 29.94 1014 10 16.0934 0 0
2:12 am 02:12 Cloudy 73 23 70 21 89 89 ESE 7 11 29.94 1014 10 16.0934 0 0
2:40 am 02:40 Mostly Cloudy 73 23 70 21 89 89 SE 8 13 29.94 1014 10 16.0934 0 0
2:54 am 02:54 Mostly Clear 73 22.8 70 21.1 90 90 ESE 8 13 29.93 1014 9 14.48406 0 0
3:40 am 03:40 Mostly Cloudy 73 23 70 21 89 89 ESE 9 15 29.94 1014 9 14.48406 0 0
3:54 am 03:54 Cloudy 73 22.8 69 20.6 87 87 SSE 12 19 29.93 1014 9 14.48406 0 0
4:54 am 04:54 Cloudy 72 22.2 68 20 87 87 SE 7 11 29.94 1014 8 12.87472 0 0
5:01 am 05:01 Cloudy 72 22.2 68 20 87 87 SE 8 13 29.94 1014 8 12.87472 0 0
5:27 am 05:27 Cloudy 71 21.7 68 20 90 90 SSE 8 13 29.94 1014 7 11.26538 0 0
5:54 am 05:54 Cloudy 71 21.7 68 20 90 90 S 7 11 29.93 1014 7 11.26538 0 0
6:03 am 06:03 Cloudy 72 22 68 20 88 88 S 6 9 29.94 1014 7 11.26538 0 0
6:54 am 06:54 Cloudy with Mist and Fog 71 21.7 68 20 90 90 S 3 6 29.94 1014 6 9.65604 0 0
7:54 am 07:54 Cloudy with Mist and Fog 71 21.7 68 20 90 90 SSE 6 9 29.94 1014 5 8.0467 0 0
8:54 am 08:54 Cloudy with Mist and Fog 72 22.2 68 20 87 87 Calm 29.96 1015 5 8.0467 0 0
9:31 am 09:31 Cloudy with Haze 73 22.8 68 20 84 84 NNE 5 7 29.97 1015 6 9.65604 0 0
9:54 am 09:54 Cloudy with Mist and Fog 72 22.2 69 20.6 91 91 NNE 5 7 29.97 1015 5 8.0467 0 0
10:27 am 10:27 Cloudy with Haze 73 23 68 20 83 83 E 7 11 29.97 1015 6 9.65604 0 0
10:32 am 10:32 Cloudy with Haze 73 23 68 20 83 83 E 6 9 29.97 1015 6 9.65604 0 0
10:54 am 10:54 Cloudy with Mist and Fog 73 22.8 69 20.6 87 87 ENE 7 11 29.98 1015 6 9.65604 0 0
11:17 am 11:17 Cloudy with Haze 73 22.8 68 20 84 84 E 7 11 29.97 1015 5 8.0467 0 0
11:54 am 11:54 Cloudy with Light Rain 73 22.8 69 20.6 87 87 ESE 8 13 29.98 1015 5 8.0467 0 0.0254
12:54 pm 12:54 Mostly Cloudy with Haze 75 23.9 69 20.6 82 82 VRB 3 6 29.97 1015 6 9.65604 0 0.0254
1:08 pm 13:08 Mostly Cloudy with Haze 75 23.9 69 20.6 82 82 VRB 3 6 29.94 1014 6 9.65604 0 0
1:40 pm 13:40 Mostly Cloudy with Haze 77 25 70 21 79 79 ESE 5 7 29.94 1014 6 9.65604 0 0
1:52 pm 13:52 Hazy 79 26 70 21 74 74 VRB 3 6 29.94 1014 6 9.65604 0 0
1:54 pm 13:54 Hazy 78 25.6 69 20.6 74 74 ENE 5 7 29.95 1014 6 9.65604 0 0
2:11 pm 14:11 Mostly Cloudy with Haze 77 25 69 20.6 77 77 NE 3 6 29.94 1014 6 9.65604 0 0
2:54 pm 14:54 Cloudy 78 25.6 69 20.6 74 74 NNE 9 15 29.96 1014 7 11.26538 0 0
3:39 pm 15:39 Mostly Cloudy 81 27.2 69 20.6 67 67 VRB 7 11 29.91 1013 7 11.26538 0 0
3:54 pm 15:54 Partly Cloudy 81 27.2 68 20 65 65 E 7 11 29.94 1014 8 12.87472 0 0
4:32 pm 16:32 Mostly Cloudy 82 28 70 21 66 66 ESE 10 17 29.91 1013 8 12.87472 0 0
4:49 pm 16:49 Mostly Sunny 82 28 70 21 66 66 VRB 3 6 29.91 1013 8 12.87472 0 0
4:54 pm 16:54 Mostly Sunny 82 27.8 69 20.6 65 65 SE 8 13 29.93 1014 8 12.87472 0 0
5:54 pm 17:54 Mostly Sunny 82 27.8 69 20.6 65 65 E 8 13 29.92 1013 8 12.87472 0 0
6:54 pm 18:54 Partly Cloudy 80 26.7 69 20.6 69 69 E 8 13 29.92 1013 8 12.87472 0 0
7:54 pm 19:54 Sunny 78 25.6 69 20.6 74 74 SE 9 15 29.92 1013 7 11.26538 0 0
8:54 pm 20:54 Clear 77 25 69 20.6 77 77 ESE 7 11 29.91 1013 7 11.26538 0 0
9:54 pm 21:54 Clear 74 23.3 68 20 82 82 ESE 5 7 29.93 1014 7 11.26538 0 0
10:54 pm 22:54 Clear 73 22.8 68 20 84 84 S 3 6 29.94 1014 7 11.26538 0 0
11:54 pm 23:54 Clear with Mist and Fog 70 21.1 68 20 93 93 SSE 5 7 29.93 1013 6 9.65604 0 0

Powered by AerisWeather